[[{"header":{"parameterUnit":"m.s-1","parameterCategory":1,"la1":30.2992,"la2":30.254,"lo1":-89.0895,"lo2":-89.0443,"dy":0.0025,"dx":0.0025,"nx":19,"ny":19,"refTime":"2026-03-14T03:00:00:Z","depth":0,"parameterNumber":2,"parameterNumberName":"U-component_of_WINDS"},"data":[0,0,0,-0.655,-0.6551,-0.6601,-0.6601,-0.6666,-0.6667,0,0,0,0,0,0,0,0,0,0,0,-0.6536,-0.6536,-0.655,-0.6552,-0.6601,-0.6601,-0.6666,-0.6667,0,0,0,0,0,0,0,0,0,0,0,-0.6536,-0.6536,-0.6537,-0.6552,-0.6601,-0.6601,-0.6666,-0.6628,0,0,0,0,0,0,0,0,0,0,-0.658,-0.6567,-0.6536,-0.6537,-0.6552,-0.66,-0.6601,-0.6627,-0.6631,-0.6645,0,-0.6656,0,-0.6662,-0.6671,-0.6672,0,0,0,-0.6552,-0.6563,-0.6576,-0.6537,-0.6552,-0.66,-0.6579,-0.6629,-0.6634,-0.665,-0.6657,-0.6659,-0.6663,-0.6672,-0.6672,-0.6749,-0.6749,0,0,-0.6549,-0.6545,-0.6573,-0.6579,-0.657,-0.6577,-0.658,-0.6632,-0.6639,-0.6657,-0.6661,-0.6665,-0.6672,-0.6673,-0.6748,-0.6749,0,0,0,-0.6541,-0.6543,-0.6555,-0.6577,-0.6585,-0.6578,-0.6582,-0.6637,-0.6641,-0.6661,-0.6665,-0.6673,-0.6673,-0.6748,-0.6748,-0.6761,0,0,0,-0.654,-0.6539,-0.6554,-0.6552,-0.6584,-0.6611,-0.6586,-0.6637,-0.6643,-0.6665,-0.6673,-0.6674,-0.6748,-0.6748,-0.676,-0.6768,0,0,0,-0.6533,-0.6538,-0.6545,-0.6552,-0.6572,-0.6611,-0.6618,-0.6639,-0.6646,-0.6672,-0.6674,-0.6747,-0.6748,-0.6759,-0.6767,-0.6787,0,0,0,-0.6525,-0.6556,-0.6545,-0.6582,-0.6572,-0.6618,-0.6617,-0.6652,-0.6676,-0.6673,-0.6748,-0.6748,-0.6759,-0.6765,-0.6786,-0.6804,-0.6811,0,0,-0.6562,-0.656,-0.6582,-0.6574,-0.662,-0.661,-0.6659,-0.6685,-0.6692,-0.673,-0.6732,-0.676,-0.6766,-0.6787,-0.6851,-0.6857,0,0,0,-0.6593,-0.6608,-0.6622,-0.6643,-0.6663,-0.6681,-0.67,-0.671,-0.6742,-0.671,-0.6774,-0.6777,-0.679,-0.6799,-0.6803,-0.6815,-0.6752,-0.6752,-0.6752,-0.6641,-0.6646,-0.6683,-0.6695,-0.6716,-0.6735,-0.6754,-0.677,-0.6771,-0.6786,-0.6797,-0.6835,-0.6845,-0.6849,-0.6861,-0.6807,-0.6807,-0.6807,-0.6807,-0.6696,-0.672,-0.6719,-0.6754,-0.6761,-0.6791,-0.6811,-0.681,-0.684,-0.6827,-0.6838,-0.6824,-0.6855,-0.6865,-0.6808,-0.6808,-0.6808,-0.6808,-0.6808,-0.6728,-0.6741,-0.6751,-0.6783,-0.6808,-0.682,-0.6848,-0.6853,-0.6859,-0.687,-0.6883,-0.6883,-0.6884,-0.6876,-0.6876,-0.6876,-0.6876,-0.6876,-0.6876,-0.6758,-0.6769,-0.6792,-0.6816,-0.6831,-0.6851,-0.6871,-0.6886,-0.6904,-0.6906,-0.6906,-0.6906,-0.6856,-0.6844,-0.6878,-0.6878,-0.6878,-0.6877,-0.6877,-0.6813,-0.6801,-0.6837,-0.6851,-0.688,-0.6904,-0.691,-0.6941,-0.6955,-0.6969,-0.6966,-0.6928,-0.6927,-0.6924,-0.6914,-0.6964,-0.6964,-0.6964,-0.6964,-0.6841,-0.6841,-0.6878,-0.6901,-0.6925,-0.6934,-0.6975,-0.6991,-0.7006,-0.7015,-0.7008,-0.6995,-0.6991,-0.6993,-0.6987,-0.6978,-0.7044,-0.7044,-0.7044,-0.6876,-0.6878,-0.6911,-0.6924,-0.6947,-0.6966,-0.7006,-0.7034,-0.7048,-0.7047,-0.7022,-0.7019,-0.6998,-0.699,-0.6989,-0.6981,-0.6964,0,0]},{"header":{"parameterUnit":"m.s-1","parameterCategory":1,"la1":30.2992,"la2":30.254,"lo1":-89.0895,"lo2":-89.0443,"dy":0.0025,"dx":0.0025,"nx":19,"ny":19,"refTime":"2026-03-14T03:00:00:Z","depth":0,"parameterNumber":3,"parameterNumberName":"V-component_of_WINDS"},"data":[0,0,0,2.622,2.6222,2.6294,2.6294,2.6386,2.6387,0,0,0,0,0,0,0,0,0,0,0,2.6201,2.6202,2.622,2.6222,2.6294,2.6294,2.6386,2.6387,0,0,0,0,0,0,0,0,0,0,0,2.6201,2.6202,2.6203,2.6222,2.6294,2.6294,2.6385,2.6331,0,0,0,0,0,0,0,0,0,0,2.6261,2.6246,2.6202,2.6203,2.6223,2.6294,2.6294,2.6328,2.6334,2.6354,0,2.6374,0,2.6382,2.6393,2.6393,0,0,0,2.622,2.6241,2.6259,2.6203,2.6224,2.6294,2.6261,2.6332,2.6338,2.6362,2.6375,2.6379,2.6384,2.6394,2.6394,2.6518,2.6519,0,0,2.6216,2.6215,2.6254,2.6263,2.6255,2.6259,2.6263,2.6336,2.6349,2.6376,2.6381,2.6385,2.6394,2.6395,2.6518,2.6519,0,0,0,2.6206,2.6213,2.6228,2.626,2.6273,2.6261,2.6266,2.6346,2.6351,2.6382,2.6386,2.6395,2.6396,2.6517,2.6518,2.655,0,0,0,2.6204,2.6207,2.6226,2.6227,2.6271,2.6311,2.6275,2.6346,2.6355,2.6386,2.6395,2.6397,2.6516,2.6518,2.6548,2.6565,0,0,0,2.6196,2.6206,2.6217,2.6226,2.6258,2.631,2.6319,2.6348,2.6357,2.6393,2.6397,2.6516,2.6517,2.6545,2.6561,2.6596,0,0,0,2.6187,2.6245,2.6218,2.6284,2.6257,2.633,2.6319,2.6373,2.6408,2.6395,2.6516,2.6518,2.6545,2.6559,2.6593,2.6624,2.6637,0,0,2.626,2.6254,2.6293,2.627,2.6348,2.6319,2.6401,2.6433,2.6437,2.649,2.6493,2.6548,2.6561,2.6595,2.6713,2.6723,0,0,0,2.6316,2.6343,2.6364,2.6398,2.6425,2.6448,2.6468,2.6479,2.6525,2.6465,2.6571,2.6579,2.6599,2.6613,2.6622,2.6638,2.6525,2.6525,2.6525,2.6417,2.6419,2.6482,2.6493,2.6525,2.6544,2.657,2.6588,2.6581,2.6606,2.6621,2.6693,2.671,2.6716,2.6733,2.6639,2.6639,2.6639,2.6639,2.6522,2.656,2.6549,2.6606,2.6607,2.6654,2.6674,2.6667,2.671,2.6682,2.67,2.6667,2.6728,2.6742,2.6642,2.6641,2.6641,2.6641,2.6641,2.6587,2.6605,2.6619,2.6666,2.6702,2.671,2.6751,2.6751,2.675,2.6768,2.6782,2.6782,2.6779,2.6775,2.6775,2.6776,2.6776,2.6776,2.6776,2.6648,2.6663,2.6698,2.673,2.675,2.6777,2.6796,2.6815,2.6836,2.6832,2.6832,2.682,2.6734,2.6711,2.678,2.6779,2.6779,2.6778,2.6778,2.6751,2.6727,2.6782,2.6803,2.6839,2.6872,2.6872,2.691,2.6926,2.6946,2.693,2.6868,2.6861,2.6854,2.6835,2.6931,2.6931,2.6931,2.6931,2.6804,2.6801,2.6856,2.6888,2.6919,2.6923,2.6982,2.6996,2.7007,2.7016,2.7003,2.6978,2.6971,2.6968,2.6959,2.6941,2.7062,2.7062,2.7062,2.6866,2.6866,2.6918,2.6929,2.6956,2.6979,2.7034,2.7069,2.7076,2.7068,2.7023,2.7017,2.6978,2.6965,2.6954,2.6939,2.6907,0,0]}]]